Weather in Ponurovka

Russia / Bryansk Oblast     52°22′01″N   32°50′22″E
temp.,
°C
wind,
m/s
gust,
m/s
humid.,
%
clouds,
%
prec.,
mm/h
press.,
hPa
HPBL,
m
4 march, thu
thu400:00−1w59890 0.0 1019245
03:00−1wsw59870 0.0 1017252
06:00−4sw511900 0.0 1014248
09:00−2sw713931 0.0 1011356
12:00+1wsw61210032 0.0 1008456
15:00+2wsw51110062 0.0 1006470
18:00+2w411100100 0.0 1005394
21:00+1wnw51196100 0.1 1005467
5 march, fri
fri500:00−1wnw489297 0.0 1006243
03:00−2wnw389696 0.0 1008233
06:00−2nnw249398 0.0 1009123
09:00−2nnw248999 0.0 1010205
12:00−1nnw2382100 0.0 1011434
15:000nnw3480100 0.0 1012685
18:00−2nnw3583100 0.0 1013135
21:00−4nnw348599 0.0 1015108
6 march, sat
sat600:00−4wnw228696 0.0 101737
03:00−5nw5108963 0.0 1018401
06:00−6nw5108231 0.0 1018497
09:00−6nw6107816 0.0 1019823
12:00−4nw7107165 0.0 10211275
15:00−3nw7106682 0.1 10211393
18:00−4nw597259 0.1 1022752
21:00−6w358029 0.1 1023132
7 march, sun
sun700:00−6wsw49780 0.0 1023221
03:00−5wsw613740 0.0 1020388
06:00−4sw8167179 0.0 1016629
09:00−3wsw10187289 0.0 1013987
12:00−1wsw111868100 0.0 10101303
15:00+1wsw101767100 0.0 10081384
18:00+1w91577100 0.0 10071102
21:000w9168199 0.0 1007985
8 march, mon
mon800:00−1w81395100 0.5 1006764
03:00−3wnw51182100 0.8 1007512
06:00−4wnw5118452 0.0 1007710
09:00−5nw697566 0.1 1010899
12:00−4nw467473 0.1 1011930
15:00−3nw566786 0.1 10121070
18:00−3nw4771100 0.1 10131000
21:00−5nnw378185 0.2 1015523